Fairfield, CA

7:13 AM PDT on April 23, 2017 (GMT -0700)
Travis Air Force Base

Weather History for KSUU - January, 2013

Change the Weather History Date:

Tuesday, January 8, 2013

  Actual Average Record
Temperature  
Mean Temperature 43 °F -  
Max Temperature 53 °F 52 °F 62 °F (2012)
Min Temperature 33 °F 38 °F 28 °F (2007)
Degree Days  
Heating Degree Days 22    
Moisture  
Dew Point 39 °F    
Average Humidity 99    
Maximum Humidity 100    
Minimum Humidity 77    
Precipitation  
Precipitation 0.00 in - - ()
Sea Level Pressure  
Sea Level Pressure 30.22 in    
Wind  
Wind Speed 4 mph (NE)    
Max Wind Speed 9 mph    
Max Gust Speed -    
Visibility 3 miles    
Events Fog , Snow    
Averages and records for this station are not official NWS values.
T = Trace of Precipitation, MM = Missing Value Source: NWS Daily Summary

Daily Weather History Graph

Daily Weather History Graph

Search for Another Location

Airport or City:

Trip Planner

Search our weather history database for the weather conditions in past years. The results will help you decide how hot, cold, wet, or windy it might be!

Date:

Astronomy

Jan. 08, 2013 Rise Set
Actual Time 7:24 AM PST 5:04 PM PST
Civil Twilight 6:55 AM PST 5:34 PM PST
Nautical Twilight 6:22 AM PST 6:06 PM PST
Astronomical Twilight 5:50 AM PST 6:38 PM PST
Moon 4:03 AM PST (1/8) 2:12 PM PST (1/8)
Length of Visible Light 10h 38m
Length of Day
9h 40m
Waning Crescent, 13% of the Moon is Illuminated
Jan 8
Waning Crescent
Jan 11
New
Jan 18
First Quarter
Jan 26
Full
Feb 3
Last Quarter

Hourly Weather History & Observations

Time (PST) Temp. Windchill Dew Point Humidity Pressure Visibility Wind Dir Wind Speed Gust Speed Precip Events Conditions
12:03 AM 37.4 °F 32.8 °F 37.4 °F 100% 30.20 in 2.0 mi NNE 5.8 mph - N/A   Clear
12:08 AM 37.4 °F 32.8 °F 37.4 °F 100% 30.20 in 1.8 mi North 5.8 mph - N/A   Clear
12:18 AM 37.4 °F 32.8 °F 37.4 °F 100% 30.20 in 2.0 mi North 5.8 mph - N/A   Clear
12:23 AM 37.4 °F 32.8 °F 37.4 °F 100% 30.20 in 3.0 mi NNE 5.8 mph - N/A   Clear
12:58 AM 38.8 °F 33.8 °F 38.8 °F 100% 30.22 in 3.0 mi North 6.9 mph - N/A   Clear
1:43 AM 37.4 °F - 37.4 °F 100% 30.21 in 2.5 mi Calm Calm - N/A   Clear
1:53 AM 37.4 °F - 37.4 °F 100% 30.21 in 4.0 mi Calm Calm - N/A   Clear
1:54 AM 37.4 °F - 37.4 °F 100% 30.21 in 4.0 mi Calm Calm - N/A   Clear
1:58 AM 37.8 °F - 37.8 °F 100% 30.23 in 2.5 mi Calm Calm - 0.00 in   Clear
2:03 AM 37.4 °F - 37.4 °F 100% 30.21 in 0.8 mi SW 1.2 mph - N/A   Clear
2:07 AM 37.4 °F - 37.4 °F 100% 30.21 in 0.8 mi Calm Calm - N/A   Clear
2:12 AM 37.4 °F - 37.4 °F 100% 30.21 in 0.5 mi Calm Calm - N/A Fog Fog
2:17 AM 37.4 °F - 37.4 °F 100% 30.21 in 0.2 mi Calm Calm - N/A Fog Fog
2:53 AM 35.6 °F 29.2 °F 35.6 °F 100% 30.20 in 0.2 mi ENE 8.1 mph - N/A Fog Fog
2:58 AM 35.2 °F 29.5 °F 35.2 °F 100% 30.22 in 0.2 mi ENE 6.9 mph - 0.00 in Fog Fog
3:28 AM 35.6 °F 32.8 °F 35.6 °F 100% 30.21 in 0.5 mi North 3.5 mph - N/A Fog , Snow Light Snow
3:33 AM 33.8 °F 28.6 °F 33.8 °F 100% 30.21 in 0.2 mi North 5.8 mph - N/A Fog , Snow Light Snow
3:58 AM 36.1 °F 29.3 °F 36.1 °F 100% 30.23 in 0.2 mi NNE 9.2 mph - 0.00 in Fog , Snow Light Snow
3:59 AM 35.6 °F 28.6 °F 35.6 °F 100% 30.21 in 0.2 mi NNE 9.2 mph - N/A Fog Fog
4:28 AM 35.6 °F - 35.6 °F 100% 30.20 in 0.2 mi Calm Calm - N/A Fog Fog
4:58 AM 36.0 °F 33.3 °F 36.0 °F 100% 30.22 in 0.2 mi NE 3.5 mph - 0.00 in Fog Fog
5:30 AM 37.4 °F - 37.4 °F 100% 30.20 in 0.2 mi NNE 1.2 mph - N/A Fog Fog
5:49 AM 35.6 °F 32.8 °F 35.6 °F 100% 30.20 in 0.2 mi ENE 3.5 mph - N/A Fog Fog
5:58 AM 36.3 °F - 36.3 °F 100% 30.22 in 0.2 mi ENE 2.3 mph - 0.00 in Fog Fog
6:02 AM 35.6 °F 32.8 °F 35.6 °F 100% 30.20 in 0.2 mi East 3.5 mph - N/A Fog Fog
6:12 AM 37.4 °F - 37.4 °F 100% 30.20 in 0.2 mi Calm Calm - N/A Fog Fog
6:58 AM 35.6 °F - 35.6 °F 100% 30.25 in 0.2 mi NNE 1.2 mph - 0.00 in Fog Fog
7:58 AM 34.5 °F 31.6 °F 34.5 °F 100% 30.25 in 0.2 mi ENE 3.5 mph - N/A Fog Fog
7:59 AM 33.8 °F 30.8 °F 33.8 °F 100% 30.23 in 0.2 mi ENE 3.5 mph - N/A Fog Fog
8:13 AM 35.6 °F 32.8 °F 35.6 °F 100% 30.24 in 0.2 mi NE 3.5 mph - N/A Fog Fog
8:26 AM 35.6 °F 31.7 °F 35.6 °F 100% 30.24 in 0.2 mi NE 4.6 mph - N/A Fog Fog
8:46 AM 35.6 °F 31.7 °F 35.6 °F 100% 30.25 in 0.2 mi NE 4.6 mph - N/A Fog Fog
8:56 AM 35.6 °F 32.8 °F 35.6 °F 100% 30.25 in 0.2 mi ENE 3.5 mph - N/A Fog Fog
8:58 AM 35.8 °F 33.0 °F 35.8 °F 100% 30.27 in 0.2 mi ENE 3.5 mph - 0.00 in Fog Fog
9:18 AM 37.4 °F 33.8 °F 37.4 °F 100% 30.26 in 0.2 mi NE 4.6 mph - N/A Fog Fog
9:23 AM 37.4 °F 34.9 °F 37.4 °F 100% 30.26 in 0.5 mi NE 3.5 mph - N/A Fog Fog
9:28 AM 39.2 °F - 39.2 °F 100% 30.26 in 0.8 mi ENE 2.3 mph - N/A   Mist
9:38 AM 39.2 °F - 39.2 °F 100% 30.26 in 1.0 mi Variable 1.2 mph - N/A   Mist
9:43 AM 39.2 °F 37.0 °F 39.2 °F 100% 30.26 in 1.5 mi NE 3.5 mph - N/A   Overcast
9:48 AM 39.2 °F 37.0 °F 39.2 °F 100% 30.26 in 2.0 mi NE 3.5 mph - N/A   Overcast
9:58 AM 40.1 °F 38.0 °F 40.1 °F 100% 30.28 in 2.0 mi NE 3.5 mph - N/A   Overcast
10:03 AM 41.0 °F 38.0 °F 41.0 °F 100% 30.26 in 2.5 mi NE 4.6 mph - N/A   Mostly Cloudy
10:08 AM 41.0 °F 38.0 °F 41.0 °F 100% 30.26 in 3.0 mi NE 4.6 mph - N/A   Mostly Cloudy
10:18 AM 41.0 °F 39.0 °F 41.0 °F 100% 30.26 in 4.0 mi East 3.5 mph - N/A   Mostly Cloudy
10:28 AM 41.0 °F 39.0 °F 41.0 °F 100% 30.26 in 3.0 mi East 3.5 mph - N/A   Scattered Clouds
10:38 AM 41.0 °F 39.0 °F 41.0 °F 100% 30.25 in 2.5 mi East 3.5 mph - N/A   Partly Cloudy
10:43 AM 42.8 °F 41.1 °F 42.8 °F 100% 30.25 in 2.0 mi East 3.5 mph - N/A   Partly Cloudy
10:48 AM 42.8 °F 41.1 °F 42.8 °F 100% 30.25 in 1.8 mi East 3.5 mph - N/A   Scattered Clouds
10:58 AM 42.8 °F - 42.8 °F 100% 30.27 in 2.0 mi Variable 2.3 mph - N/A   Mostly Cloudy
11:18 AM 42.8 °F 41.1 °F 42.8 °F 100% 30.23 in 2.5 mi East 3.5 mph - N/A   Overcast
11:23 AM 42.8 °F - 42.8 °F 100% 30.23 in 3.0 mi Variable 2.3 mph - N/A   Mostly Cloudy
11:28 AM 44.6 °F - 44.6 °F 100% 30.22 in 2.5 mi East 2.3 mph - N/A   Mostly Cloudy
11:33 AM 44.6 °F - 44.6 °F 100% 30.22 in 2.5 mi East 2.3 mph - N/A   Mostly Cloudy
11:38 AM 44.6 °F - 44.6 °F 100% 30.22 in 3.0 mi East 2.3 mph - N/A   Scattered Clouds
11:58 AM 45.9 °F - 45.9 °F 100% 30.23 in 6.0 mi Variable 2.3 mph - N/A   Partly Cloudy
12:58 PM 50.0 °F - 49.8 °F 99% 30.21 in 10.0 mi Variable 2.3 mph - N/A   Clear
1:58 PM 52.5 °F - 46.4 °F 80% 30.20 in 10.0 mi Variable 2.3 mph - N/A   Partly Cloudy
2:58 PM 53.6 °F - 48.4 °F 82% 30.19 in 10.0 mi ENE 5.8 mph - N/A   Clear
3:58 PM 53.6 °F - 46.6 °F 77% 30.18 in 10.0 mi East 5.8 mph - N/A   Clear
4:58 PM 49.1 °F - 48.9 °F 99% 30.17 in 10.0 mi ENE 4.6 mph - N/A   Clear
5:58 PM 45.7 °F - 45.3 °F 99% 30.17 in 10.0 mi ESE 2.3 mph - N/A   Clear
6:58 PM 40.8 °F 38.8 °F 40.8 °F 100% 30.17 in 10.0 mi NNW 3.5 mph - N/A   Clear
7:58 PM 40.3 °F - 40.3 °F 100% 30.19 in 10.0 mi South 1.2 mph - N/A   Clear
8:58 PM 40.5 °F - 40.5 °F 100% 30.19 in 6.0 mi Calm Calm - N/A   Clear
9:58 PM 39.4 °F - 39.4 °F 100% 30.18 in 8.0 mi Calm Calm - N/A   Clear
10:58 PM 40.3 °F - 40.3 °F 100% 30.19 in 7.0 mi ENE 1.2 mph - N/A   Clear
11:58 PM 38.7 °F 34.3 °F 38.7 °F 100% 30.19 in 4.0 mi NNE 5.8 mph - N/A   Clear